AAY3026 KTYS-KPIE

Flight info

Callsign AAY3026
Flight time 1h 17m
Altitude 37000
Route THRSR HONID BANGZ2
Aircraft A320/M-SDE3FGHIRWY/LB1

Departure

Time 2026-04-27 19:31
Airport McGhee Tyson Airport (KTYS)

Arrival

Time 2026-04-27 20:49
Airport St. Petersburg Clearwater International Airport (KPIE)
Time Latitude Longitude Altitude Speed Heading
2026-04-27 19:07 35.80676 -83.99182 968 ft 0 kts 144°
2026-04-27 19:24 35.80678 -83.99184 968 ft 2 kts 144°
2026-04-27 19:24 35.80699 -83.99203 964 ft 4 kts 137°
2026-04-27 19:24 35.80715 -83.99228 966 ft 4 kts 107°
2026-04-27 19:24 35.80715 -83.99256 963 ft 4 kts 50°
2026-04-27 19:25 35.80712 -83.99261 963 ft 0 kts 44°
2026-04-27 19:27 35.80718 -83.99253 963 ft 4 kts 45°
2026-04-27 19:27 35.80759 -83.99236 965 ft 9 kts 341°
2026-04-27 19:27 35.80835 -83.99231 964 ft 14 kts 44°
2026-04-27 19:28 35.80899 -83.99148 963 ft 13 kts 46°
2026-04-27 19:28 35.80958 -83.99076 965 ft 12 kts 45°
2026-04-27 19:28 35.81035 -83.98982 966 ft 21 kts 45°
2026-04-27 19:28 35.81147 -83.98841 963 ft 23 kts 48°
2026-04-27 19:29 35.81256 -83.98708 966 ft 21 kts 45°
2026-04-27 19:29 35.81357 -83.98589 962 ft 19 kts 43°
2026-04-27 19:29 35.81448 -83.98478 964 ft 18 kts 46°
2026-04-27 19:29 35.81530 -83.98379 965 ft 15 kts 44°
2026-04-27 19:30 35.81604 -83.98294 966 ft 14 kts 39°
2026-04-27 19:30 35.81685 -83.98238 963 ft 13 kts 17°
2026-04-27 19:30 35.81729 -83.98299 962 ft 13 kts 241°
2026-04-27 19:30 35.81648 -83.98400 960 ft 31 kts 224°
2026-04-27 19:31 35.81311 -83.98810 959 ft 101 kts 225°
2026-04-27 19:31 35.80680 -83.99577 986 ft 151 kts 226°
2026-04-27 19:31 35.79926 -84.00507 1558 ft 154 kts 227°
2026-04-27 19:31 35.79182 -84.01449 2186 ft 157 kts 225°
2026-04-27 19:32 35.78426 -84.02439 2888 ft 159 kts 226°
2026-04-27 19:32 35.77662 -84.03485 3337 ft 175 kts 227°
2026-04-27 19:32 35.76779 -84.04695 3524 ft 204 kts 226°
2026-04-27 19:32 35.75746 -84.06081 3745 ft 236 kts 225°
2026-04-27 19:33 35.74425 -84.07354 4421 ft 243 kts 202°
2026-04-27 19:33 35.73353 -84.07748 4996 ft 247 kts 189°
2026-04-27 19:33 35.70989 -84.08215 6508 ft 263 kts 187°
2026-04-27 19:33 35.69160 -84.08521 7476 ft 268 kts 187°
2026-04-27 19:34 35.67288 -84.08825 8280 ft 274 kts 188°
2026-04-27 19:34 35.65406 -84.09132 9087 ft 280 kts 188°
2026-04-27 19:34 35.63453 -84.09454 9846 ft 287 kts 189°
2026-04-27 19:34 35.61428 -84.09792 10339 ft 304 kts 189°
2026-04-27 19:35 35.59254 -84.10166 10597 ft 327 kts 189°
2026-04-27 19:35 35.56957 -84.10568 11120 ft 338 kts 190°
2026-04-27 19:35 35.54607 -84.10981 11840 ft 343 kts 190°
2026-04-27 19:35 35.52237 -84.11394 12580 ft 347 kts 190°
2026-04-27 19:36 35.49829 -84.11813 13311 ft 351 kts 190°
2026-04-27 19:36 35.47395 -84.12235 14023 ft 355 kts 190°
2026-04-27 19:36 35.44968 -84.12653 14610 ft 359 kts 191°
2026-04-27 19:36 35.42476 -84.13081 15227 ft 363 kts 191°
2026-04-27 19:37 35.39959 -84.13517 15830 ft 368 kts 191°
2026-04-27 19:37 35.37409 -84.13961 16444 ft 372 kts 192°
2026-04-27 19:37 35.34833 -84.14412 17066 ft 376 kts 192°
2026-04-27 19:37 35.32225 -84.14869 17700 ft 381 kts 192°
2026-04-27 19:38 35.29588 -84.15330 18300 ft 385 kts 193°
2026-04-27 19:38 35.26922 -84.15792 18830 ft 389 kts 193°
2026-04-27 19:38 35.24232 -84.16252 19365 ft 392 kts 192°
2026-04-27 19:38 35.21554 -84.16705 19847 ft 395 kts 192°
2026-04-27 19:39 35.18822 -84.17168 20351 ft 398 kts 192°
2026-04-27 19:39 35.16067 -84.17639 20853 ft 402 kts 191°
2026-04-27 19:39 35.13287 -84.18118 21349 ft 405 kts 191°
2026-04-27 19:39 35.10486 -84.18603 21846 ft 408 kts 191°
2026-04-27 19:40 35.07659 -84.19091 22349 ft 412 kts 191°
2026-04-27 19:40 35.04811 -84.19581 22833 ft 415 kts 191°
2026-04-27 19:40 35.01935 -84.20076 23300 ft 419 kts 190°
2026-04-27 19:40 34.99039 -84.20572 23752 ft 422 kts 190°
2026-04-27 19:41 34.96115 -84.21072 24144 ft 425 kts 190°
2026-04-27 19:41 34.93215 -84.21568 24549 ft 428 kts 190°
2026-04-27 19:41 34.90262 -84.22074 24951 ft 430 kts 190°
2026-04-27 19:41 34.87295 -84.22582 25370 ft 432 kts 190°
2026-04-27 19:42 34.84316 -84.23091 25768 ft 434 kts 190°
2026-04-27 19:42 34.81318 -84.23602 26157 ft 436 kts 190°
2026-04-27 19:42 34.78310 -84.24106 26542 ft 438 kts 188°
2026-04-27 19:42 34.75263 -84.24385 26918 ft 441 kts 186°
2026-04-27 19:43 34.72190 -84.24577 27298 ft 443 kts 185°
2026-04-27 19:43 34.69101 -84.24722 27672 ft 445 kts 184°
2026-04-27 19:43 34.65997 -84.24846 28039 ft 447 kts 184°
2026-04-27 19:43 34.62880 -84.24967 28421 ft 449 kts 184°
2026-04-27 19:44 34.59792 -84.25097 28789 ft 451 kts 185°
2026-04-27 19:44 34.56649 -84.25244 29140 ft 453 kts 185°
2026-04-27 19:44 34.53493 -84.25402 29514 ft 455 kts 185°
2026-04-27 19:44 34.50321 -84.25566 29860 ft 457 kts 185°
2026-04-27 19:45 34.47138 -84.25733 30192 ft 459 kts 185°
2026-04-27 19:45 34.43943 -84.25901 30475 ft 461 kts 185°
2026-04-27 19:45 34.40732 -84.26064 30745 ft 463 kts 185°
2026-04-27 19:45 34.37509 -84.26224 31003 ft 464 kts 185°
2026-04-27 19:46 34.34280 -84.26385 31260 ft 466 kts 185°
2026-04-27 19:46 34.31079 -84.26545 31516 ft 468 kts 185°
2026-04-27 19:46 34.27827 -84.26707 31863 ft 467 kts 185°
2026-04-27 19:46 34.24583 -84.26869 32244 ft 466 kts 185°
2026-04-27 19:47 34.21345 -84.27032 32609 ft 465 kts 185°
2026-04-27 19:47 34.18206 -84.27190 32952 ft 465 kts 185°
2026-04-27 19:47 34.15089 -84.27350 33285 ft 464 kts 185°
2026-04-27 19:47 34.11860 -84.27512 33622 ft 464 kts 185°
2026-04-27 19:48 34.08632 -84.27672 33957 ft 464 kts 185°
2026-04-27 19:48 34.05409 -84.27835 34288 ft 464 kts 185°
2026-04-27 19:48 34.02189 -84.27997 34571 ft 464 kts 185°
2026-04-27 19:48 33.99027 -84.28153 34837 ft 464 kts 186°
2026-04-27 19:49 33.95849 -84.28309 35094 ft 464 kts 186°
2026-04-27 19:49 33.92620 -84.28467 35344 ft 464 kts 186°
2026-04-27 19:49 33.89391 -84.28626 35591 ft 465 kts 186°
2026-04-27 19:49 33.86160 -84.28788 35833 ft 465 kts 186°
2026-04-27 19:50 33.82974 -84.28949 36059 ft 465 kts 186°
2026-04-27 19:50 33.79694 -84.29114 36296 ft 465 kts 186°
2026-04-27 19:50 33.76453 -84.29273 36517 ft 466 kts 186°
2026-04-27 19:50 33.73217 -84.29430 36737 ft 466 kts 186°
2026-04-27 19:51 33.69985 -84.29589 36964 ft 466 kts 187°
2026-04-27 19:51 33.66786 -84.29749 37152 ft 467 kts 187°
2026-04-27 19:51 33.63532 -84.29911 37210 ft 470 kts 187°
2026-04-27 19:52 33.56925 -84.30238 37204 ft 478 kts 186°
2026-04-27 19:52 33.50261 -84.30569 37233 ft 480 kts 187°
2026-04-27 19:53 33.40232 -84.31074 37240 ft 481 kts 186°
2026-04-27 19:53 33.33583 -84.31389 37240 ft 482 kts 186°
2026-04-27 19:54 33.26879 -84.31714 37231 ft 482 kts 186°
2026-04-27 19:54 33.20166 -84.32045 37215 ft 483 kts 186°
2026-04-27 19:55 33.13448 -84.32372 37200 ft 483 kts 186°
2026-04-27 19:55 33.06770 -84.32697 37181 ft 484 kts 186°
2026-04-27 19:56 33.00035 -84.33027 37170 ft 484 kts 186°
2026-04-27 19:56 32.93560 -84.33339 37170 ft 485 kts 186°
2026-04-27 19:57 32.86818 -84.33662 37166 ft 485 kts 186°
2026-04-27 19:57 32.80066 -84.33995 37163 ft 486 kts 186°
2026-04-27 19:58 32.73360 -84.34328 37185 ft 486 kts 186°
2026-04-27 19:58 32.66595 -84.34664 37174 ft 487 kts 186°
2026-04-27 19:59 32.59828 -84.34991 37150 ft 487 kts 186°
2026-04-27 19:59 32.53054 -84.35305 37154 ft 487 kts 186°
2026-04-27 20:00 32.46321 -84.35628 37149 ft 488 kts 187°
2026-04-27 20:00 32.39540 -84.35966 37150 ft 488 kts 187°
2026-04-27 20:01 32.32751 -84.36297 37147 ft 488 kts 186°
2026-04-27 20:01 32.25962 -84.36617 37146 ft 489 kts 186°
2026-04-27 20:02 32.19164 -84.36941 37146 ft 489 kts 187°
2026-04-27 20:02 32.12364 -84.37259 37142 ft 489 kts 186°
2026-04-27 20:03 32.05613 -84.37571 37138 ft 489 kts 187°
2026-04-27 20:03 31.98804 -84.37886 37139 ft 490 kts 187°
2026-04-27 20:04 31.91994 -84.38209 37149 ft 490 kts 187°
2026-04-27 20:04 31.85180 -84.38541 37150 ft 490 kts 187°
2026-04-27 20:05 31.78407 -84.38868 37156 ft 491 kts 187°
2026-04-27 20:05 31.71670 -84.39183 37153 ft 491 kts 187°
2026-04-27 20:06 31.64846 -84.39500 37153 ft 491 kts 187°
2026-04-27 20:06 31.58001 -84.39644 37152 ft 493 kts 184°
2026-04-27 20:07 31.51189 -84.39583 37146 ft 493 kts 184°
2026-04-27 20:07 31.44320 -84.39516 37147 ft 494 kts 184°
2026-04-27 20:08 31.37451 -84.39523 37130 ft 494 kts 185°
2026-04-27 20:08 31.30579 -84.39554 37126 ft 494 kts 185°
2026-04-27 20:09 31.23749 -84.39573 37121 ft 494 kts 184°
2026-04-27 20:09 31.16922 -84.39575 37123 ft 495 kts 184°
2026-04-27 20:10 31.10037 -84.39581 37122 ft 495 kts 185°
2026-04-27 20:10 31.03148 -84.39590 37122 ft 495 kts 185°
2026-04-27 20:11 30.96300 -84.39604 37119 ft 496 kts 185°
2026-04-27 20:11 30.89403 -84.39618 37118 ft 496 kts 185°
2026-04-27 20:12 30.83669 -84.39629 37116 ft 496 kts 185°
2026-04-27 20:12 30.75588 -84.39642 37117 ft 497 kts 185°
2026-04-27 20:13 30.68670 -84.39648 37104 ft 497 kts 185°
2026-04-27 20:13 30.63852 -84.39649 37105 ft 497 kts 184°
2026-04-27 20:14 30.56930 -84.39648 37100 ft 498 kts 185°
2026-04-27 20:14 30.50005 -84.39663 37095 ft 498 kts 185°
2026-04-27 20:15 30.43068 -84.39673 37097 ft 499 kts 185°
2026-04-27 20:15 30.36175 -84.39066 37104 ft 506 kts 169°
2026-04-27 20:16 30.29644 -84.35943 37093 ft 513 kts 148°
2026-04-27 20:16 30.24069 -84.30781 37088 ft 515 kts 139°
2026-04-27 20:17 30.18631 -84.25383 37102 ft 515 kts 140°
2026-04-27 20:17 30.14096 -84.20906 37088 ft 516 kts 140°
2026-04-27 20:18 30.07746 -84.14654 37087 ft 516 kts 140°
2026-04-27 20:18 30.02282 -84.09266 37092 ft 517 kts 139°
2026-04-27 20:19 29.96821 -84.03878 37089 ft 517 kts 140°
2026-04-27 20:19 29.91382 -83.98535 37089 ft 517 kts 140°
2026-04-27 20:20 29.85927 -83.93194 37078 ft 507 kts 140°
2026-04-27 20:20 29.80367 -83.88341 37075 ft 499 kts 152°
2026-04-27 20:21 29.74319 -83.84429 37079 ft 498 kts 152°
2026-04-27 20:21 29.68271 -83.80541 37073 ft 498 kts 152°
2026-04-27 20:22 29.62265 -83.76684 37078 ft 498 kts 152°
2026-04-27 20:22 29.56218 -83.72792 37082 ft 498 kts 152°
2026-04-27 20:23 29.50173 -83.68899 37084 ft 498 kts 152°
2026-04-27 20:23 29.44115 -83.65022 37085 ft 499 kts 152°
2026-04-27 20:24 29.41124 -83.63111 36882 ft 500 kts 152°
2026-04-27 20:24 29.38065 -83.61156 35822 ft 509 kts 152°
2026-04-27 20:24 29.34912 -83.59283 34967 ft 511 kts 158°
2026-04-27 20:24 29.31574 -83.57904 34271 ft 508 kts 165°
2026-04-27 20:25 29.28189 -83.56758 33482 ft 507 kts 165°
2026-04-27 20:25 29.24802 -83.55611 32635 ft 507 kts 165°
2026-04-27 20:25 29.21419 -83.54465 31784 ft 507 kts 165°
2026-04-27 20:25 29.18048 -83.53324 31095 ft 504 kts 165°
2026-04-27 20:26 29.14702 -83.52191 30431 ft 500 kts 165°
2026-04-27 20:26 29.11424 -83.51084 29768 ft 495 kts 165°
2026-04-27 20:26 29.08140 -83.49976 29063 ft 490 kts 165°
2026-04-27 20:26 29.04885 -83.48878 28375 ft 485 kts 165°
2026-04-27 20:27 29.01665 -83.47790 27689 ft 480 kts 165°
2026-04-27 20:27 28.98479 -83.46703 27036 ft 476 kts 163°
2026-04-27 20:27 28.95426 -83.45287 26415 ft 472 kts 156°
2026-04-27 20:27 28.92447 -83.43739 25797 ft 468 kts 156°
2026-04-27 20:28 28.89534 -83.42231 25203 ft 464 kts 156°
2026-04-27 20:28 28.86606 -83.40718 24613 ft 460 kts 156°
2026-04-27 20:28 28.83700 -83.39218 24023 ft 456 kts 156°
2026-04-27 20:28 28.81791 -83.38232 23658 ft 454 kts 156°
2026-04-27 20:29 28.77960 -83.36258 22801 ft 449 kts 156°
2026-04-27 20:29 28.75127 -83.34800 22155 ft 446 kts 155°
2026-04-27 20:29 28.72322 -83.33357 21678 ft 439 kts 155°
2026-04-27 20:29 28.69556 -83.31935 21184 ft 433 kts 155°
2026-04-27 20:30 28.66861 -83.30550 20693 ft 429 kts 155°
2026-04-27 20:30 28.64155 -83.29158 20193 ft 425 kts 155°
2026-04-27 20:30 28.61476 -83.27777 19683 ft 421 kts 155°
2026-04-27 20:30 28.58813 -83.26408 19169 ft 419 kts 154°
2026-04-27 20:31 28.56160 -83.25047 18650 ft 417 kts 154°
2026-04-27 20:31 28.53522 -83.23696 18094 ft 416 kts 154°
2026-04-27 20:31 28.50888 -83.22346 17521 ft 413 kts 154°
2026-04-27 20:31 28.48278 -83.21006 17020 ft 410 kts 154°
2026-04-27 20:32 28.45692 -83.19675 16504 ft 407 kts 155°
2026-04-27 20:32 28.43159 -83.18373 16010 ft 404 kts 155°
2026-04-27 20:32 28.40607 -83.17068 15519 ft 401 kts 155°
2026-04-27 20:32 28.38077 -83.15779 15083 ft 397 kts 155°
2026-04-27 20:33 28.35561 -83.14513 14649 ft 393 kts 156°
2026-04-27 20:33 28.33066 -83.13257 14220 ft 389 kts 155°
2026-04-27 20:33 28.30677 -83.11971 14106 ft 375 kts 154°
2026-04-27 20:33 28.28358 -83.10706 13874 ft 366 kts 154°
2026-04-27 20:34 28.26073 -83.09458 13484 ft 362 kts 154°
2026-04-27 20:34 28.23847 -83.08239 13080 ft 359 kts 154°
2026-04-27 20:34 28.21609 -83.07014 12658 ft 356 kts 154°
2026-04-27 20:34 28.19394 -83.05802 12251 ft 352 kts 154°
2026-04-27 20:35 28.17196 -83.04601 11837 ft 349 kts 154°
2026-04-27 20:35 28.15017 -83.03410 11412 ft 346 kts 154°
2026-04-27 20:35 28.13034 -83.02326 11053 ft 344 kts 154°
2026-04-27 20:35 28.10891 -83.01155 10655 ft 341 kts 154°
2026-04-27 20:36 28.08768 -82.99998 10361 ft 335 kts 154°
2026-04-27 20:36 28.06706 -82.98879 10244 ft 322 kts 154°
2026-04-27 20:36 28.05001 -82.97959 10144 ft 313 kts 154°
2026-04-27 20:36 28.03070 -82.96917 9993 ft 303 kts 154°
2026-04-27 20:37 28.01231 -82.95927 9719 ft 299 kts 154°
2026-04-27 20:37 27.99357 -82.94925 9379 ft 296 kts 154°
2026-04-27 20:37 27.97495 -82.93941 9022 ft 294 kts 154°
2026-04-27 20:37 27.95649 -82.92972 8661 ft 292 kts 154°
2026-04-27 20:38 27.93828 -82.92023 8298 ft 289 kts 154°
2026-04-27 20:38 27.92004 -82.91082 7940 ft 287 kts 154°
2026-04-27 20:38 27.90214 -82.90167 7577 ft 285 kts 154°
2026-04-27 20:38 27.88411 -82.89252 7212 ft 283 kts 154°
2026-04-27 20:39 27.86618 -82.88347 6855 ft 281 kts 154°
2026-04-27 20:39 27.84838 -82.87453 6480 ft 279 kts 154°
2026-04-27 20:39 27.83062 -82.86566 6094 ft 278 kts 154°
2026-04-27 20:39 27.81371 -82.85724 5705 ft 276 kts 154°
2026-04-27 20:40 27.79617 -82.84853 5300 ft 275 kts 154°
2026-04-27 20:40 27.77875 -82.83988 4913 ft 273 kts 154°
2026-04-27 20:40 27.76138 -82.83132 4533 ft 270 kts 154°
2026-04-27 20:40 27.74455 -82.82305 4406 ft 258 kts 154°
2026-04-27 20:41 27.72871 -82.81538 4284 ft 243 kts 154°
2026-04-27 20:41 27.71367 -82.80806 4038 ft 230 kts 154°
2026-04-27 20:41 27.69914 -82.80096 3602 ft 227 kts 154°
2026-04-27 20:41 27.68463 -82.79385 3309 ft 227 kts 154°
2026-04-27 20:42 27.67035 -82.78660 3008 ft 226 kts 148°
2026-04-27 20:42 27.65957 -82.77452 2780 ft 216 kts 112°
2026-04-27 20:42 27.65577 -82.75878 2660 ft 204 kts 96°
2026-04-27 20:42 27.65468 -82.74394 2550 ft 196 kts 82°
2026-04-27 20:43 27.65700 -82.72927 2415 ft 190 kts 75°
2026-04-27 20:43 27.66014 -82.71485 2245 ft 188 kts 74°
2026-04-27 20:43 27.66347 -82.70056 2034 ft 188 kts 70°
2026-04-27 20:43 27.67057 -82.68847 1996 ft 187 kts 41°
2026-04-27 20:44 27.68090 -82.67954 1993 ft 187 kts 34°
2026-04-27 20:44 27.69079 -82.67204 1987 ft 188 kts 32°
2026-04-27 20:44 27.70178 -82.66399 1986 ft 188 kts 33°
2026-04-27 20:44 27.71346 -82.65745 1994 ft 188 kts 15°
2026-04-27 20:45 27.72653 -82.65683 1990 ft 191 kts 354°
2026-04-27 20:45 27.73953 -82.65907 1991 ft 192 kts 353°
2026-04-27 20:45 27.75162 -82.66121 1993 ft 190 kts 353°
2026-04-27 20:45 27.76470 -82.66346 1990 ft 191 kts 354°
2026-04-27 20:46 27.77793 -82.66572 1988 ft 192 kts 353°
2026-04-27 20:46 27.79113 -82.66798 1998 ft 190 kts 352°
2026-04-27 20:46 27.80385 -82.67017 1840 ft 180 kts 354°
2026-04-27 20:46 27.81587 -82.67223 1632 ft 169 kts 355°
2026-04-27 20:47 27.82706 -82.67416 1418 ft 156 kts 354°
2026-04-27 20:47 27.83716 -82.67589 1263 ft 142 kts 353°
2026-04-27 20:47 27.84674 -82.67754 1081 ft 136 kts 354°
2026-04-27 20:47 27.85611 -82.67913 902 ft 137 kts 353°
2026-04-27 20:48 27.86547 -82.68073 730 ft 136 kts 352°
2026-04-27 20:48 27.87164 -82.68166 628 ft 135 kts 352°
2026-04-27 20:48 27.88417 -82.68385 359 ft 137 kts 349°
2026-04-27 20:48 27.89336 -82.68536 201 ft 137 kts 346°
2026-04-27 20:49 27.90258 -82.68706 33 ft 130 kts 347°
2026-04-27 20:49 27.91034 -82.68850 24 ft 83 kts 352°
2026-04-27 20:49 27.91397 -82.68908 21 ft 40 kts 351°
2026-04-27 20:49 27.91545 -82.68937 21 ft 17 kts 339°
2026-04-27 20:50 27.91549 -82.69038 23 ft 14 kts 256°
2026-04-27 20:50 27.91484 -82.69080 24 ft 12 kts 171°
2026-04-27 20:50 27.91406 -82.69065 24 ft 13 kts 171°
2026-04-27 20:50 27.91285 -82.69044 24 ft 20 kts 170°
2026-04-27 20:51 27.91152 -82.69021 24 ft 19 kts 172°
2026-04-27 20:51 27.91031 -82.69000 24 ft 17 kts 171°
2026-04-27 20:51 27.90917 -82.68981 24 ft 16 kts 172°
2026-04-27 20:51 27.90838 -82.69011 27 ft 13 kts 258°
2026-04-27 20:52 27.90836 -82.69121 24 ft 15 kts 269°
2026-04-27 20:52 27.90832 -82.69226 24 ft 12 kts 262°
2026-04-27 20:52 27.90768 -82.69252 24 ft 10 kts 177°
2026-04-27 20:52 27.90748 -82.69251 24 ft 0 kts 178°